STARLINK-3739, 52266

Orbit data source: Space-Track

STARLINK-3739, 52266 is a payload satellite owned by SpaceX/Seattle (US) in LEO that was launched on Thu, 21 Apr 2022 UTC via an FALCON 9 launch vehicle from the Air Force Eastern Test Range (AFETR). Payload-class satellites include a variety of spacecraft equipped with specific instruments for various scientific and technological missions. These include communications satellites like Starlink; space stations such as the ISS; scientific satellites like the Hubble; Earth observation satellites from companies like Planet Labs, Umbra, and HawkEye 360; GPS; miniature CubeSats for education and research; and military/defense satellites.

Loading next visibility...
Identifier
52266, 2022-041F
Orbit
LEO
Country
Flag of USUS
Related business
Manufacturer
SpaceX/Seattle
Mission
Operational Commercial Communications
Bus & Motor
STARLINK, Unknown motor
Mass
297 kg wet, ~275 kg dry
Launch date (UTC)
2022-04-21 (4 years ago)
Launch vehicle
FALCON 9
Launch site
Air Force Eastern Test Range (AFETR)
Object type
Payload
Rocket body
Debris
Shape & HBR
Box + 1 Pan, 10.1 m
Radar Cross Section
11.087 m², Large (>1 m²)

Expand to show TLE details & history
Last TLE update: 17 hours ago

TLE from 17 hours ago
0 STARLINK-3739
1 52266U 22041F   26129.90671403 -.00000040  00000-0  15577-4 0  9994
2 52266  53.2162 194.3057 0001152  92.5003 267.6121 15.08838461223601
Epoch: 2026-05-09T21:45Z
TLE epoch observation values (Epoch: 2026-05-09T21:45:40.092Z)
Latitude
-0.00001°
Longitude
0.17122°
Altitude
540.679 km
Speed
7.593 km/s
True Right ascension
12h 57m 13s
True Declination
0° 00' 00"
Sunlit
Object was in full shadow at epoch
Visualization orbit readout
Latitude
Unknown
Longitude
Unknown
Altitude
Unknown
Speed
Unknown
Apparent Right ascension
Unknown
Apparent Declination
Unknown
Sunlit
N/A
Visualization observer readout
Local Sidereal Time
22:53:09
Azimuth
Unknown
Elevation
Unknown
Doppler factor
Unknown
Orbital elements
Apogee altitude
540.79 km
Perigee altitude
539.196 km
Semi-major axis
6,918.13 km
Eccentricity
0.00012
Inclination
53.2162°
RAAN
194.3057°
Arg. of periapsis
92.5003°
True anomaly
267.59891°
Mean anomaly
267.6121°
Eccentric anomaly
267.60551°
Mean motion
3.7719 °/min
Orbital period
95.44 mins
BSTAR
0.000015577
Loading maneuver chart data...
Computing Atmospheric mass density...
Loading historical data...
Loading historical data...
Loading historical data...
Loading historical data...
Loading historical data...
Loading historical data...
Loading historical data...

Documentation

Showing up to 5 results
|